| time (UTC) | temp F | wind direction | speed MPH | gust MPH | rain 1hr in | rain 24hr in | rain mn in | humidity % | barometer mb |
| 20260503230001 | 59 | 171 | 0.0 | 2.0 | 0.00 | 0.00 | 0.00 | 44 | 1014.2 |
| 20260503224600 | 62 | 141 | 0.0 | 3.0 | 0.00 | 0.00 | 0.00 | 37 | 1014.3 |
| 20260503223101 | 62 | 281 | 3.0 | 7.0 | 0.00 | 0.00 | 0.00 | 32 | 1014.2 |
| 20260503221557 | 63 | 238 | 1.0 | 8.0 | 0.00 | 0.00 | 0.00 | 34 | 1014.3 |
| 20260503220057 | 63 | 240 | 4.0 | 11.0 | 0.00 | 0.00 | 0.00 | 32 | 1014.3 |
| 20260503214555 | 63 | 254 | 6.0 | 9.0 | 0.00 | 0.00 | 0.00 | 32 | 1014.4 |
| 20260503213101 | 62 | 233 | 4.0 | 12.0 | 0.00 | 0.00 | 0.00 | 33 | 1014.4 |
| 20260503211553 | 62 | 286 | 5.0 | 13.0 | 0.00 | 0.00 | 0.00 | 36 | 1014.5 |
| 20260503210101 | 62 | 239 | 4.0 | 8.0 | 0.00 | 0.00 | 0.00 | 33 | 1014.5 |
| 20260503204548 | 61 | 360 | 1.0 | 15.0 | 0.00 | 0.00 | 0.00 | 37 | 1014.5 |
| 20260503203052 | 61 | 321 | 3.0 | 7.0 | 0.00 | 0.00 | 0.00 | 34 | 1014.6 |
| 20260503201546 | 61 | 286 | 2.0 | 12.0 | 0.00 | 0.00 | 0.00 | 34 | 1014.9 |
| 20260503200049 | 61 | 248 | 2.0 | 10.0 | 0.00 | 0.00 | 0.00 | 35 | 1014.9 |
| 20260503194545 | 60 | 293 | 2.0 | 11.0 | 0.00 | 0.00 | 0.00 | 34 | 1015.2 |
| 20260503193048 | 60 | 284 | 8.0 | 14.0 | 0.00 | 0.00 | 0.00 | 37 | 1015.7 |
| 20260503191542 | 61 | 227 | 1.0 | 10.0 | 0.00 | 0.00 | 0.00 | 35 | 1015.8 |
| 20260503190041 | 61 | 238 | 5.0 | 15.0 | 0.00 | 0.00 | 0.00 | 35 | 1016.1 |
| 20260503184554 | 60 | 271 | 5.0 | 12.0 | 0.00 | 0.00 | 0.00 | 38 | 1016.3 |
| 20260503183053 | 60 | 215 | 5.0 | 16.0 | 0.00 | 0.00 | 0.00 | 36 | 1016.3 |
| 20260503181539 | 59 | 238 | 4.0 | 17.0 | 0.00 | 0.00 | 0.00 | 42 | 1016.4 |
| 20260503180038 | 60 | 229 | 6.0 | 14.0 | 0.00 | 0.00 | 0.00 | 37 | 1016.6 |
| 20260503174536 | 60 | 250 | 4.0 | 12.0 | 0.00 | 0.00 | 0.00 | 39 | 1016.4 |
| 20260503173036 | 58 | 259 | 7.0 | 15.0 | 0.00 | 0.00 | 0.00 | 37 | 1016.8 |
| 20260503171535 | 60 | 256 | 4.0 | 12.0 | 0.00 | 0.00 | 0.00 | 42 | 1017.1 |
| 20260503081533 | 38 | 279 | 1.0 | 7.0 | 0.00 | 0.00 | 0.00 | 77 | 1015.6 |
| 20260503071517 | 41 | 259 | 0.0 | 1.0 | 0.00 | 0.00 | 0.00 | 72 | 1015.1 |
| 20260503054605 | 42 | 281 | 0.0 | 2.0 | 0.00 | 0.00 | 0.00 | 71 | 1014.5 |
| 20260503053058 | 43 | 234 | 0.0 | 4.0 | 0.00 | 0.00 | 0.00 | 70 | 1014.6 |
| 20260503051558 | 43 | 242 | 1.0 | 3.0 | 0.00 | 0.00 | 0.00 | 68 | 1014.5 |
| 20260503050053 | 44 | 125 | 1.0 | 4.0 | 0.00 | 0.00 | 0.00 | 66 | 1014.6 |
| 20260503044554 | 45 | 310 | 3.0 | 9.0 | 0.00 | 0.00 | 0.00 | 64 | 1014.5 |
| 20260503043050 | 46 | 250 | 2.0 | 8.0 | 0.00 | 0.00 | 0.00 | 62 | 1014.5 |
| 20260503041548 | 46 | 360 | 6.0 | 16.0 | 0.00 | 0.00 | 0.00 | 63 | 1014.6 |
| 20260503040047 | 46 | 37 | 1.0 | 8.0 | 0.00 | 0.00 | 0.00 | 62 | 1014.4 |
| 20260503034548 | 47 | 311 | 5.0 | 14.0 | 0.00 | 0.00 | 0.00 | 60 | 1014.4 |
| 20260503033058 | 47 | 244 | 1.0 | 6.0 | 0.00 | 0.00 | 0.00 | 60 | 1014.3 |
| 20260503031552 | 48 | 172 | 1.0 | 4.0 | 0.00 | 0.00 | 0.00 | 60 | 1014.4 |
| 20260503030138 | 48 | 284 | 1.0 | 8.0 | 0.00 | 0.00 | 0.00 | 58 | 1014.3 |
| 20260503024542 | 49 | 260 | 3.0 | 9.0 | 0.00 | 0.00 | 0.00 | 58 | 1014.1 |
| 20260503023037 | 50 | 219 | 8.0 | 12.0 | 0.00 | 0.00 | 0.00 | 55 | 1014.2 |
| 20260503021537 | 50 | 303 | 4.0 | 9.0 | 0.00 | 0.00 | 0.00 | 55 | 1014.5 |
| 20260503020038 | 51 | 256 | 3.0 | 10.0 | 0.00 | 0.00 | 0.00 | 54 | 1014.4 |
| 20260503014541 | 51 | 229 | 2.0 | 4.0 | 0.00 | 0.00 | 0.00 | 56 | 1014.3 |
| 20260503013036 | 52 | 248 | 3.0 | 8.0 | 0.00 | 0.00 | 0.00 | 52 | 1014.1 |
| 20260503010035 | 52 | 325 | 2.0 | 8.0 | 0.00 | 0.00 | 0.00 | 52 | 1013.5 |
| 20260503004536 | 52 | 288 | 3.0 | 8.0 | 0.00 | 0.00 | 0.00 | 50 | 1013.2 |
| 20260503003034 | 53 | 259 | 3.0 | 10.0 | 0.00 | 0.00 | 0.00 | 48 | 1013.1 |
| 20260503001533 | 53 | 228 | 3.0 | 8.0 | 0.00 | 0.00 | 0.00 | 48 | 1012.8 |
| 20260503000032 | 53 | 178 | 1.0 | 4.0 | 0.00 | 0.00 | 0.00 | 48 | 1012.6 |
| 20260502234533 | 53 | 244 | 0.0 | 2.0 | 0.00 | 0.00 | 0.00 | 54 | 1012.4 |
| 20260502233040 | 54 | 244 | 1.0 | 4.0 | 0.00 | 0.00 | 0.00 | 49 | 1012.3 |
| 20260502231545 | 55 | 227 | 1.0 | 3.0 | 0.00 | 0.00 | 0.00 | 48 | 1012.2 |